Location: Les Coudrans
(46.1056°N, 1.1158°W)
Time: 15:22:17
(UTC+00:00)

Cosmos 1066 Rocket - Pass Details

Date: 03 March 2021
Orbit: 799 x 894 km, 81.2° (Epoch: 18 April)

Event Time Altitude Azimuth Distance (km) Brightness Sun altitude
Rises 19:35:27 0° 353° (N) 3,438 7.6 -18.4°
Reaches altitude 10° 19:37:57 10° 358° (N) 2,512 6.8 -18.8°
Maximum altitude 19:43:30 50° 74° (ENE) 1,103 4.4 -19.7°
Enters shadow 19:45:42 34° 128° (SE) 1,423 4.9 -20.1°
